Content
SEND FEEDBACK

Daily
Averages
Monthly
Summary
United States of America

ST. LOUIS, MISSOURI


Home > North America > United States > Missouri
Elevation: 163 meters     Latitude: 38 45N     Longitude: 090 22W

WEATHER
 
SELECT A DAY
Number of Records: 196,674;   Date Range: 1/1/95 - 9/21/14
 
SHARE

PRINT THIS DATA

[ ← Previous Day ]
WEATHER ALMANAC - 17 APRIL, 2013
[ Next Day → ]
[ °F ]   °C
Weather ElementAverageHighLow
Temperature17.8 °C29.4 °C (3:54 pm)10 °C (12:54 am)
Dewpoint12.8 °C18.3 °C (12:54 pm)7.2 °C (12:54 am)
Humidity75.5 %94 % (8:41 am)47 % (6:54 pm)
Barometer1013.5 hPa1020.3 hPa (12:54 am)1003.7 hPa (11:54 pm)
Wind Speed14.2 km/h25.9 km/h (3:54 pm)
Wind Gust40.7 km/h (1:54 pm)
Weather ElementAverage
Visibility10.8 km
Wind DirectionESE (127.9 °)

Weather ElementTotal
Precipitation---
Cooling Degree Days1.4 (Base 18.3)
Growing Degree Days9.7 (Base 10)
Averaged from 29 records on 17 April, 2013
WEATHER CONDITIONS BREAKOUT
WIND DIRECTION BREAKOUT
WEATHER BY HOUR - 17 APRIL, 2013
[ °F ]   °C
Local TimeTemperatureDewpointHumidityBarometerVisibilityWind DirectionWind SpeedGust SpeedPrecipitationEventsConditions
12:54 AM10 °C7.2 °C83 %1020.3 hPa16.1 kmENE (60°)9.3 km/hOvercast
1:54 AM10 °C7.2 °C83 %1019.6 hPa16.1 kmENE (60°)11.1 km/hOvercast
2:54 AM10 °C7.8 °C86 %1019.6 hPa9.7 kmEast (80°)9.3 km/hOvercast
3:54 AM10 °C8.3 °C89 %1019.3 hPa9.7 kmEast (80°)5.6 km/hOvercast
4:54 AM10 °C8.3 °C89 %1018.6 hPa6.4 kmEast (90°)11.1 km/hOvercast
5:01 AM10 °C8 °C87 %1018.3 hPa6.4 kmEast (90°)11.1 km/hOvercast
5:54 AM10 °C8.9 °C93 %1017.9 hPa4.8 kmEast (100°)9.3 km/hOvercast
6:54 AM10 °C8.9 °C93 %1017.9 hPa4 kmEast (80°)11.1 km/hOvercast
7:54 AM10.6 °C9.4 °C92 %1017.9 hPa4 kmEast (100°)11.1 km/hOvercast
8:00 AM11 °C9 °C88 %1017.9 hPa4 kmEast (90°)9.3 km/hOvercast
8:41 AM11 °C10 °C94 %1017.6 hPa2.9 kmEast (90°)13 km/hOvercast
8:54 AM11 °C10 °C94 %1017.3 hPa2.9 kmEast (100°)13 km/hOvercast
9:54 AM12.8 °C11.1 °C89 %1016.6 hPa3.2 kmSE (140°)13 km/hOvercast
10:07 AM13 °C12 °C94 %1016.3 hPa3.2 kmSSE (150°)14.8 km/hOvercast
10:54 AM16.1 °C13.3 °C83 %1015.6 hPa6.4 kmSE (140°)14.8 km/h27.8 km/hHaze
11:28 AM18 °C15 °C83 %1014.9 hPa9.7 kmSSE (150°)13 km/hHaze
11:45 AM19 °C16 °C83 %1014.9 hPa11.3 kmSouth (170°)9.3 km/hMostly Cloudy
11:54 AM20 °C16.1 °C78 %1014.6 hPa12.9 kmSouth (180°)14.8 km/h25.9 km/hMostly Cloudy
12:54 PM23.9 °C18.3 °C71 %1012.9 hPa16.1 kmSSW (200°)13 km/hPartly Cloudy
1:54 PM25 °C17.8 °C64 %1011.9 hPa16.1 kmSSE (160°)22.2 km/h40.7 km/hClear
2:54 PM27.8 °C17.8 °C54 %1010.2 hPa16.1 kmSouth (180°)20.4 km/h35.2 km/hMostly Cloudy
3:54 PM29.4 °C17.8 °C49 %1008.5 hPa16.1 kmSouth (170°)25.9 km/h40.7 km/hScattered Clouds
4:54 PM29.4 °C17.2 °C48 %1007.5 hPa16.1 kmSSE (150°)16.7 km/h33.3 km/hScattered Clouds
6:54 PM27.8 °C15.6 °C47 %1005.8 hPa16.1 kmVariable11.1 km/hMostly Cloudy
7:54 PM27.2 °C15 °C47 %1005.4 hPa16.1 kmSouth (170°)13 km/hClear
8:54 PM26.7 °C16.1 °C52 %1005.4 hPa16.1 kmSouth (170°)16.7 km/hMostly Cloudy
9:54 PM26.1 °C16.7 °C56 %1005.1 hPa16.1 kmSouth (180°)16.7 km/h33.3 km/hOvercast
10:54 PM25.6 °C16.7 °C58 %1004.4 hPa16.1 kmSouth (190°)24.1 km/h38.9 km/hOvercast
11:54 PM25 °C17.2 °C62 %1003.7 hPa16.1 kmSouth (190°)25.9 km/h38.9 km/hClear
Hourly data recorded from KSUS, located 0 kilometers away from St. Louis, Missouri







STORIES FROM OUR PARTNERS